Norfolk, NE

5:14 AM CST on November 21, 2017 (GMT -0600)
Stefan Memorial

Weather History for KOFK - November, 2012

Change the Weather History Date:

Thursday, November 29, 2012

  Actual Average Record
Temperature  
Mean Temperature 36 °F 29 °F  
Max Temperature 56 °F 39 °F 77 °F (2014)
Min Temperature 16 °F 19 °F -12 °F (1964)
Degree Days  
Heating Degree Days 29 36  
Month to date heating degree days 751 822  
Since 1 July heating degree days 1393 1407  
Cooling Degree Days 0 0  
Month to date cooling degree days 0 0  
Year to date cooling degree days 1373 915  
Moisture  
Dew Point 25 °F    
Average Humidity 64    
Maximum Humidity 92    
Minimum Humidity 35    
Precipitation  
Precipitation 0.00 in 0.04 in 0.68 in (1991)
Month to date precipitation 0.43 1.33  
Year to date precipitation 13.37 26.62  
Snow  
Snow 0.00 in 0.20 in - ()
Month to date snowfall T 3.9  
Since 1 July snowfall T 4.7  
Snow Depth 0.00 in    
Sea Level Pressure  
Sea Level Pressure 29.99 in    
Wind  
Wind Speed 3 mph (SSW)    
Max Wind Speed 12 mph    
Max Gust Speed 15 mph    
Visibility 10 miles    
Events      
T = Trace of Precipitation, MM = Missing Value Source: NWS Daily Summary

Daily Weather History Graph

Daily Weather History Graph

Search for Another Location

Airport or City:

Trip Planner

Search our weather history database for the weather conditions in past years. The results will help you decide how hot, cold, wet, or windy it might be!

Date:

Astronomy

Nov. 29, 2012 Rise Set
Actual Time 7:36 AM CST 4:59 PM CST
Civil Twilight 7:05 AM CST 5:30 PM CST
Nautical Twilight 6:30 AM CST 6:05 PM CST
Astronomical Twilight 5:57 AM CST 6:38 PM CST
Moon 6:03 PM CST (11/29) 8:24 AM CST (11/29)
Length of Visible Light 10h 25m
Length of Day
9h 23m
Full, 99% of the Moon is Illuminated
Nov 29
Full
Dec 6
Last Quarter
Dec 13
New
Dec 19
First Quarter
Dec 28
Full

Hourly Weather History & Observations

Time (CST) Temp. Windchill Dew Point Humidity Pressure Visibility Wind Dir Wind Speed Gust Speed Precip Events Conditions
12:56 AM 30.0 °F - 23.0 °F 75% 30.06 in 10.0 mi Calm Calm - N/A   Clear
1:56 AM 28.9 °F - 24.1 °F 82% 30.04 in 10.0 mi Calm Calm - N/A   Clear
2:56 AM 27.0 °F 19.5 °F 23.0 °F 85% 30.04 in 10.0 mi SSW 6.9 mph - N/A   Clear
3:56 AM 26.1 °F - 21.0 °F 81% 30.03 in 10.0 mi Calm Calm - N/A   Clear
4:56 AM 21.9 °F - 18.0 °F 85% 30.03 in 10.0 mi Calm Calm - N/A   Clear
5:56 AM 24.1 °F - 21.0 °F 88% 30.03 in 10.0 mi Calm Calm - N/A   Clear
6:56 AM 21.0 °F - 19.0 °F 92% 30.03 in 10.0 mi Calm Calm - N/A   Clear
7:56 AM 21.9 °F - 19.0 °F 89% 30.02 in 7.0 mi Calm Calm - N/A   Clear
8:56 AM 27.0 °F - 23.0 °F 85% 30.02 in 9.0 mi Calm Calm - N/A   Clear
9:56 AM 34.0 °F - 26.1 °F 73% 30.02 in 10.0 mi Calm Calm - N/A   Clear
10:56 AM 39.0 °F - 27.0 °F 62% 30.01 in 10.0 mi Calm Calm - N/A   Clear
11:56 AM 45.0 °F - 27.0 °F 49% 29.99 in 10.0 mi Calm Calm - N/A   Clear
12:56 PM 48.0 °F - 28.0 °F 46% 29.96 in 10.0 mi North 4.6 mph - N/A   Clear
1:56 PM 51.1 °F - 28.9 °F 43% 29.93 in 10.0 mi South 4.6 mph - N/A   Clear
2:56 PM 55.0 °F - 28.9 °F 37% 29.91 in 10.0 mi SSE 5.8 mph - N/A   Clear
3:56 PM 55.0 °F - 28.9 °F 37% 29.90 in 10.0 mi South 5.8 mph - N/A   Clear
4:56 PM 46.9 °F - 28.9 °F 50% 29.90 in 10.0 mi SSE 9.2 mph - N/A   Clear
5:56 PM 44.1 °F - 28.0 °F 53% 29.94 in 10.0 mi Calm Calm - N/A   Clear
6:56 PM 39.9 °F 35.8 °F 28.9 °F 65% 29.94 in 10.0 mi SE 5.8 mph - N/A   Clear
7:56 PM 36.0 °F - 27.0 °F 70% 29.96 in 10.0 mi Calm Calm - N/A   Clear
8:56 PM 30.0 °F 26.5 °F 24.1 °F 79% 29.96 in 10.0 mi NW 3.5 mph - N/A   Clear
9:56 PM 32.0 °F 26.4 °F 25.0 °F 75% 29.97 in 10.0 mi West 5.8 mph - N/A   Clear
10:56 PM 37.0 °F 29.8 °F 27.0 °F 67% 29.97 in 10.0 mi West 10.4 mph - N/A   Clear
11:56 PM 34.0 °F 25.5 °F 26.1 °F 73% 29.98 in 10.0 mi WNW 11.5 mph - N/A   Clear